Regional Weather Roundup
Issued by NWS Grand Forks, ND

Home | Current Version | Previous Version | Graphics & Text | Print | Product List | Glossary On
Versions: 1 2 3 4 5 6 7 8 9 10 11 12 13 14 15 16 17 18 19 20 21 22 23 24 25 26 27 28 29 30 31 32 33 34 35 36 37 38 39 40 41 42 43 44 45 46 47 48 49 50
000
ASUS43 KFGF 302310
RWRFGF
PRAIRIE TO PINES  WEATHER ROUNDUP
NATIONAL WEATHER SERVICE EASTERN NORTH DAKOTA/GRAND FORKS ND
600 PM CDT TUE AUG 30 2016

 **SATELLITE DATA USED TO AUGMENT SKY COVER AT AUTOMATED STATIONS**
 *****  WEATHER ACROSS EASTERN NORTH DAKOTA  *****

CITY           SKY/WX    TMP DP  RH WIND       PRES   REMARKS
GRAND FORKS    MOSUNNY   81  53  37 NW5       30.18F
GRAND FRKS AFB SUNNY     79  52  38 N6        30.19F
GRAND FRKS NWS   N/A     79 N/A N/A N3          N/A
DEVILS LAKE    CLOUDY    77  51  40 SW5       30.22F
FARGO          SUNNY     80  53  39 NE8       30.18F
WAHPETON ARPT  CLEAR     79  45  29 N5        30.19S
$$

 ***** WEATHER ACROSS CENTRAL AND WESTERN NORTH DAKOTA  *****

CITY           SKY/WX    TMP DP  RH WIND       PRES   REMARKS
BISMARCK       SUNNY     81  48  31 SE10      30.16F
MINOT          CLOUDY    82  47  29 E10       30.17F
JAMESTOWN      SUNNY     79  52  38 E7        30.20F
MINOT AFB      CLOUDY    82  46  27 SE12      30.17F
GARRISON         N/A     79  52  38 SE9       30.16F
WILLISTON      MOSUNNY   84  52  33 SE15      30.13S
DICKINSON      CLOUDY    81  57  43 SE17      30.15S
HETTINGER      PTSUNNY   83  61  47 SE13      30.15F
$$

 *****  OTHER AIRPORT OBSERVATIONS IN OUR AREA  *****

CITY           SKY/WX    TMP DP  RH WIND       PRES   REMARKS
WALHALLA       NOT AVBL
GRAFTON AIRPOR FAIR      77  52  41 VRB7      30.20F
VALLEY CITY AR FAIR      77  55  47 E5        30.23F
CANDO          NOT AVBL
CAVALIER APRT  FAIR      77  50  38 NE7       30.19F
GWINNER        FAIR      81  55  41 NE6       30.20F
SHEYENNE NWR     N/A     80  54  39 NE5       29.95
ROLLA            N/A     75  48  38 CALM      30.23S
 ***** THE ABOVE OBSERVATIONS ARE NON NWS ARE NOT QUALITY
       CONTROLLED AND MAY MIS-REPORT RAIN FOR SNOW...
$$

  *****  WEATHER ACROSS NORTHERN MINNESOTA  *****

CITY           SKY/WX    TMP DP  RH WIND       PRES   REMARKS
FLAG ISLAND    SUNNY     72  48  43 NW3       30.18S HAZE
WARROAD        SUNNY     73  52  46 NW8       30.20S
ROSEAU         SUNNY     75  52  43 NW9       30.20S
HALLOCK        SUNNY     75  45  33 NW7       30.19F
THF RVR FALLS  SUNNY     75  51  43 NW7       30.21S
BAUDETTE       SUNNY     72  52  49 NW7       30.18F
WASKISH        SUNNY     73  55  53 NW7       30.19S
CROOKSTON      SUNNY     77  52  41 N7        30.20S
STEPHEN NDAWN    N/A     77  48  36 NW8         N/A
GREENBUSH NDAW   N/A     75  46  35 NW8         N/A
$$
  *****  WEATHER ACROSS CENTRAL AND WEST MINNESOTA  *****

CITY           SKY/WX    TMP DP  RH WIND       PRES   REMARKS
FOSSTON        SUNNY     75  52  43 W8        30.21F
BEMIDJI        SUNNY     73  51  46 NW9       30.19F
PARK RAPIDS    NOT AVBL
ELBOW LAKE     FAIR      77  52  42 N5        30.20S
WADENA         SUNNY     75  55  50 N5        30.19S
DETROIT LAKES  SUNNY     73  54  49 NW8       30.22F
MOORHEAD       SUNNY     79  48  34 NE8       30.20S
FERGUS FALLS   SUNNY     79  54  41 N5        30.20S
MORRIS MN      SUNNY     81  52  36 N6        30.19S
STAPLES        SUNNY     75  50  41 NW8       30.19S
$$
  *****  WEATHER ELSEWHERE ACROSS MINNESOTA  *****

CITY           SKY/WX    TMP DP  RH WIND       PRES   REMARKS
DULUTH         SUNNY     73  48  41 NW10      30.15S
INTRNTL FALLS  SUNNY     70  50  49 NW9       30.17S
ELY            SUNNY     70  46  43 W7        30.16S
CLOQUET        SUNNY     73  45  35 NW9       30.16S
WHEATON        SUNNY     81  55  41 N7        30.20S
BRAINERD       SUNNY     75  52  44 N7        30.18F
HIBBING        SUNNY     70  49  47 N9        30.17S
ALEXANDRIA     SUNNY     78  52  40 N5        30.21F
SAINT CLOUD    SUNNY     77  55  46 N5        30.17S
MINNEAPOLIS    MOSUNNY   79  53  40 NW9       30.14S
$$

  *****  WEATHER ACROSS SOUTH DAKOTA  *****

CITY           SKY/WX    TMP DP  RH WIND       PRES   REMARKS
SIOUX FALLS    CLOUDY    81  70  69 E10       30.17F
BROOKINGS      SUNNY     79  62  56 E8        30.19F
WATERTOWN      SUNNY     80  57  45 NE8       30.19F
HURON          MOSUNNY   82  64  54 E12       30.14F
SISSETON         N/A     82  54  37 NE5       30.18F
ABERDEEN       SUNNY     84  53  34 E10       30.16F
MITCHELL       MOSUNNY   82  68  62 E12       30.14S
PIERRE         SUNNY     89  63  41 E17G29    30.12R HX  90
MOBRIDGE       CLOUDY    87  55  33 E13       30.13S
RAPID CITY     CLOUDY    83  60  45 SE8       30.18F
$$

  *****  SOME WEATHER IN NEARBY STATES *****

CITY           SKY/WX    TMP DP  RH WIND       PRES   REMARKS
GLASGOW MT     SUNNY     88  56  33 SE14      30.03F
GREAT FALLS MT CLOUDY    87  37  17 E8        30.04F
CHEYENNE WY    CLOUDY    70  49  47 E9        30.33F
SCOTTSBLUFF NE SUNNY     85  51  31 SE13      30.21F
OMAHA NE       CLOUDY    78  69  73 N6        30.14S
DES MOINES IA  CLOUDY    81  70  69 N10       30.11S
DAVENPORT IA   HVY RAIN  72  68  87 E8        30.08S VSB 1
CHICAGO IL     CLOUDY    77  67  71 N8        30.06S
EAU CLAIRE WI  CLOUDY    77  61  57 NW9       30.11S
LA CROSSE WI   PTSUNNY   82  67  60 NW9       30.08S
$$

  *****  SOME NATIONAL WEATHER *****

CITY           SKY/WX    TMP DP  RH WIND       PRES   REMARKS
LA GUARDIA NY  MOCLDY    79  64  60 S15       30.04S
RALEIGH NC     PTCLDY    89  65  44 E7        30.00F HX  91
ATLANTA GA     MOSUNNY   87  67  51 E15       30.00F HX  90
NEW ORLEANS LA MOSUNNY   93  72  50 E9        29.87F HX 101
OKLAHOMA CITY  CLOUDY    93  63  36 E9        30.02S HX  94
ALBUQUERQUE NM MOSUNNY   79  49  34 SE6       30.21F
SALT LAKE CITY PTSUNNY   97  27   8 S10       30.02F HX  91
LOS ANGELES CA MOSUNNY   77  65  66 W12       29.80F
BOISE ID       CLOUDY    84  49  29 NW10      29.90S
SEATTLE WA     CLOUDY    69  51  52 SW13      30.00F
$$

*** WEATHER ACROSS MANITOBA...SASKATCHEWAN AND ONTARIO ***
                ***ONTARIO***

CITY           SKY/WX    TMP DP  RH WIND       PRES   REMARKS
GERALDTON      PTSUNNY   66  52  59 NW5       30.04F
THUNDER BAY    MOSUNNY   75  48  38 NW9       30.07S
SIOUX LOOKOUT  PTSUNNY   66  54  63 NW10      30.15S
TORONTO        MOCLDY    82  64  54 SW13G35   30.01F
BIG TROUT LK   CLOUDY    55  52  88 NW13G23   30.07R
PICKLE LAKE    CLOUDY    63  52  67 NW7       30.10R
DRYDEN         CLOUDY    68  52  56 N6        30.16S
KENORA         MOSUNNY   70  45  40 NW8G18    30.19S
$$
                *** MANITOBA***

CITY           SKY/WX    TMP DP  RH WIND       PRES   REMARKS
BRANDON        PTSUNNY   73  48  40 CALM      30.21F
DAUPHIN        SUNNY     70  48  46 E10       30.23S
ISLAND LAKE    CLOUDY    57  54  88 N9G18     30.20R
PILOT MOUND      N/A     73  50  43 N6          N/A
THE PAS        CLOUDY    63  52  67 VRB2      30.27S
THOMPSON       PTSUNNY   57  46  67 N8        30.27R
WINNIPEG       PTSUNNY   72  39  30 NW15G21   30.21S
LYNN LAKE      PTSUNNY   59  48  67 MISG      30.29F
CHURCHILL      CLOUDY    50  46  87 N16G23    30.26R
GILLAM         DRIZZLE   52  50  93 N17G26    30.24R
$$
                ***SASKATCHEWAN***

CITY           SKY/WX    TMP DP  RH WIND       PRES   REMARKS
ESTEVAN        PTSUNNY   82  45  26 SE12G17   30.16F
KINDERSLEY     SUNNY     77  52  41 E21       30.12F
LLOYDMINSTER   MOSUNNY   70  48  46 E18       30.17F
PRINCE ALBERT  MOSUNNY   68  45  42 E7        30.24F
REGINA         MOSUNNY   84  48  28 SE13      30.14F
YORKTON        SUNNY     72  48  43 E7        30.23S
N. BATTLEFORD  SUNNY     72  46  40 E14G21    30.20F
LA RONGE       PTSUNNY   63  50  63 E3        30.29S
SASKATOON      NOT AVBL
SWIFT CURRENT  SUNNY     79  55  44 E18G24    30.11F
$$
NOTE: THESE ARE AUTOMATED STATIONS WITH LIMITED QUALITY CONTROL
      "FAIR" INDICATES FEW OR NO CLOUDS BELOW 12,000 FEET WITH NO
      SIGNIFICANT WEATHER AND/OR OBSTRUCTIONS TO VISIBILITY.
      SKY/WX - SKY CONDITION AND SIGNIFICANT WEATHER.
      TMP - AIR TEMPERATURE.    DP   - DEWPOINT TEMPERATURE.
      RH  - RELATIVE HUMIDITY.  PRES - PRESSURE.
      HX  - HEAT INDEX.         WCI  - WIND CHILL INDEX.
$




USA.gov is the U.S. government's official web portal to all federal, state and local government web resources and services.